De Queen, AR

10:21 PM CDT on October 23, 2019 (GMT -0500)
Helms Sevier County

Weather History for KDEQ - August, 2019

Change the Weather History Date:

Tuesday, August 27, 2019

  Actual Average Record
Temperature  
Mean Temperature 78 °F 80 °F  
Max Temperature 86 °F 93 °F 105 °F (1999)
Min Temperature 70 °F 67 °F 56 °F (2010)
Degree Days  
Heating Degree Days 0 0  
Month to date heating degree days 0 0  
Since 1 June heating degree days 0 0  
Since 1 July heating degree days 0 0  
Cooling Degree Days 13 15  
Month to date cooling degree days 517 444  
Year to date cooling degree days 1654 1536  
Since 1 June cooling degree days 1381 1319  
Growing Degree Days 28 (Base 50)    
Moisture  
Dew Point 72 °F    
Average Humidity 89    
Maximum Humidity 100    
Minimum Humidity 64    
Precipitation  
Precipitation 0.73 in 0.05 in 2.03 in (1942)
Month to date precipitation 1.08 1.86  
Year to date precipitation 38.16 31.28  
Snow  
Snow 0.00 in - - ()
Month to date snowfall 0.0  
Since 1 June snowfall 0.0  
Since 1 July snowfall 0.0  
Snow Depth 0.00 in    
Sea Level Pressure  
Sea Level Pressure 29.93 in    
Wind  
Wind Speed 6 mph ()    
Max Wind Speed 30 mph    
Max Gust Speed 38 mph    
Visibility 8.1 miles    
Events Rain , Thunderstorm    
T = Trace of Precipitation, MM = Missing Value Source: Averaged Metar Reports

Daily Weather History Graph

Daily Weather History Graph

Search for Another Location

Airport or City:

Astronomy

Aug. 27, 2019 Rise Set
Actual Time 6:47 AM CDT 7:50 PM CDT
Civil Twilight 6:21 AM CDT 8:15 PM CDT
Nautical Twilight 5:51 AM CDT 8:46 PM CDT
Astronomical Twilight 5:19 AM CDT 9:17 PM CDT
Moon 3:22 AM CDT (8/27) 6:02 PM CDT (8/27)
Length of Visible Light 13h 54m
Length of Day
13h 02m
Waning Crescent, 11% of the Moon is Illuminated
Aug 27
Waning Crescent
Aug 30
New
Sep 5
First Quarter
Sep 13
Full
Sep 21
Last Quarter

Hourly Weather History & Observations

Time (CDT) Temp. Heat Index Dew Point Humidity Pressure Visibility Wind Dir Wind Speed Gust Speed Precip Events Conditions
12:53 AM 81.0 °F 87.9 °F 77.0 °F 88% 29.78 in 10.0 mi Calm Calm - N/A   Clear
1:53 AM 79.0 °F - 78.1 °F 97% 29.81 in 8.0 mi Calm Calm - N/A   Clear
2:53 AM 79.0 °F - 78.1 °F 97% 29.81 in 9.0 mi East 3.5 mph - N/A   Clear
3:38 AM 80.1 °F 82.3 °F 66.9 °F 64% 29.90 in 10.0 mi NE 28.8 mph 38.0 mph N/A   Mostly Cloudy
3:53 AM 79.0 °F - 66.0 °F 64% 29.88 in 10.0 mi NE 15.0 mph 29.9 mph N/A Thunderstorm Thunderstorm
4:08 AM 75.9 °F - 66.9 °F 74% 29.91 in 10.0 mi East 13.8 mph 24.2 mph N/A Thunderstorm Overcast
4:16 AM 72.0 °F - 69.1 °F 91% 29.91 in 6.0 mi East 13.8 mph - 0.05 in Rain , Thunderstorm Heavy Thunderstorms and Rain
5:26 AM 71.1 °F - 71.1 °F 100% 29.96 in 6.0 mi Calm Calm - 0.04 in Rain , Thunderstorm Thunderstorms and Rain
5:43 AM 71.1 °F - 71.1 °F 100% 29.97 in 2.5 mi ESE 9.2 mph - 0.18 in Rain , Thunderstorm Heavy Thunderstorms and Rain
5:53 AM 71.1 °F - 71.1 °F 100% 29.94 in 1.8 mi ESE 8.1 mph - 0.35 in Rain , Thunderstorm Heavy Thunderstorms and Rain
6:26 AM 70.0 °F - 70.0 °F 100% 29.95 in 4.0 mi SE 11.5 mph - 0.28 in Rain , Thunderstorm Heavy Thunderstorms and Rain
6:45 AM 70.0 °F - 70.0 °F 100% 29.93 in 10.0 mi SSE 11.5 mph - 0.28 in Rain , Thunderstorm Light Rain
6:53 AM 70.0 °F - 70.0 °F 100% 29.91 in 10.0 mi SE 11.5 mph - 0.28 in Thunderstorm Thunderstorm
7:16 AM 71.1 °F - 70.0 °F 96% 29.97 in 10.0 mi Calm Calm - 0.00 in Rain , Thunderstorm Light Thunderstorms and Rain
7:39 AM 71.1 °F - 70.0 °F 96% 29.97 in 10.0 mi SSW 5.8 mph - 0.00 in Rain , Thunderstorm Light Rain
8:01 AM 71.1 °F - 69.1 °F 93% 29.97 in 7.0 mi SE 5.8 mph - 0.01 in Rain , Thunderstorm Thunderstorms and Rain
8:37 AM 70.0 °F - 70.0 °F 100% 29.97 in 4.0 mi Calm Calm - 0.01 in Rain Rain
9:53 AM 71.1 °F - 71.1 °F 100% 29.97 in 10.0 mi WSW 6.9 mph - 0.00 in   Clear
10:53 AM 72.0 °F - 71.1 °F 97% 29.94 in 10.0 mi Calm Calm - N/A   Clear
11:53 AM 73.9 °F - 71.1 °F 91% 29.98 in 10.0 mi West 6.9 mph - N/A   Clear
12:53 PM 78.1 °F - 72.0 °F 81% 29.96 in 10.0 mi Variable 5.8 mph - N/A   Partly Cloudy
1:53 PM 82.0 °F 86.7 °F 72.0 °F 71% 29.91 in 10.0 mi South 8.1 mph - N/A   Clear
3:53 PM 86.0 °F 93.8 °F 73.9 °F 67% 29.93 in 10.0 mi WSW 8.1 mph - N/A   Clear
4:53 PM 84.9 °F 93.3 °F 75.0 °F 72% 29.93 in 10.0 mi Variable 3.5 mph - N/A   Clear
5:53 PM 86.0 °F 93.0 °F 73.0 °F 65% 29.92 in 10.0 mi South 4.6 mph - N/A   Clear
6:53 PM 84.9 °F 92.1 °F 73.9 °F 69% 29.91 in 10.0 mi ESE 3.5 mph - N/A   Clear
7:53 PM 81.0 °F 87.3 °F 75.9 °F 85% 29.91 in 10.0 mi SSE 3.5 mph - N/A   Clear
8:53 PM 79.0 °F - 75.9 °F 90% 29.94 in 10.0 mi Calm Calm - N/A   Clear
9:53 PM 75.9 °F - 75.9 °F 100% 29.97 in 10.0 mi Calm Calm - N/A   Clear
10:53 PM 75.0 °F - 75.0 °F 100% 29.98 in 6.0 mi Calm Calm - N/A   Clear
11:38 PM 73.9 °F - 73.9 °F 100% 30.00 in 1.8 mi Calm Calm - N/A   Clear
11:53 PM 73.9 °F - 73.9 °F 100% 29.99 in 1.5 mi Calm Calm - N/A   Clear